{"data":{"norad_id":49736,"intl_designator":"2021-115N","name":"STARLINK-3148","alt_names":[],"object_type":"PAYLOAD","status":"ACTIVE","operator":null,"country":"US","launch_date":"2021-12-02","launch_site_code":"AFETR","launch_vehicle":null,"mission":null,"orbit_class":"UNKNOWN","rcs_meters":null,"size_class":null,"mass_kg":null,"dimensions":null,"purposes":["comms"],"wikipedia_slug":null,"has_3d_model":false,"image_url":null,"decayed_at":null,"tle_current":{"epoch":"2026-05-24T18:34:26.245632Z","epoch_age_seconds":88544,"freshness":"FRESH","line1":"1 49736U 21115N   26144.77391488 -.00000007  00000+0  17669-4 0  9993","line2":"2 49736  53.2139 167.4506 0001177  80.9750 279.1375 15.08838971247027","mean_motion":15.08838971,"eccentricity":0.0001177,"inclination_deg":53.2139,"raan_deg":167.4506,"arg_perigee_deg":80.975,"mean_anomaly_deg":279.1375,"bstar":1.7669e-5,"rev_number":24702,"period_min":95.437619764396,"perigee_km":538.93229931526,"apogee_km":540.56076909921,"semimajor_km":6917.8835342072,"source":"CELESTRAK","updated_at":"2026-05-25T13:38:16.833424Z"}}}